| time (UTC) | temp F | wind direction | speed MPH | gust MPH | rain 1hr in | rain 24hr in | rain mn in | humidity % | barometer mb |
| 20260505123742 | 65 | 222 | 9.0 | 17.0 | 0.00 | 0.02 | 0.02 | 65 | 1007.7 |
| 20260505122243 | 64 | 229 | 2.0 | 13.0 | 0.00 | 0.02 | 0.02 | 67 | 1007.8 |
| 20260505120743 | 63 | 235 | 4.0 | 10.0 | 0.00 | 0.02 | 0.02 | 68 | 1007.8 |
| 20260505120644 | 63 | 209 | 1.0 | 10.0 | 0.00 | 0.02 | 0.02 | 68 | 1007.8 |
| 20260505115243 | 62 | 212 | 7.0 | 7.0 | 0.00 | 0.02 | 0.02 | 69 | 1007.9 |
| 20260505113742 | 62 | 241 | 2.0 | 9.0 | 0.00 | 0.02 | 0.02 | 70 | 1007.8 |
| 20260505113644 | 62 | 241 | 2.0 | 9.0 | 0.00 | 0.02 | 0.02 | 70 | 1007.8 |
| 20260505112242 | 62 | 231 | 2.0 | 11.0 | 0.00 | 0.02 | 0.02 | 70 | 1007.8 |
| 20260505110743 | 62 | 212 | 3.0 | 10.0 | 0.00 | 0.02 | 0.02 | 70 | 1007.8 |
| 20260505110648 | 62 | 233 | 3.0 | 10.0 | 0.00 | 0.02 | 0.02 | 70 | 1007.8 |
| 20260505100743 | 61 | 265 | 1.0 | 7.0 | 0.00 | 0.02 | 0.02 | 74 | 1007.0 |
| 20260505100647 | 61 | 235 | 1.0 | 7.0 | 0.00 | 0.02 | 0.02 | 74 | 1007.0 |
| 20260505095242 | 61 | 209 | 0.0 | 11.0 | 0.00 | 0.02 | 0.02 | 74 | 1006.7 |
| 20260505093742 | 61 | 181 | 5.0 | 10.0 | 0.00 | 0.02 | 0.02 | 74 | 1006.7 |
| 20260505092243 | 60 | 229 | 1.0 | 8.0 | 0.00 | 0.02 | 0.02 | 75 | 1006.5 |
| 20260505090742 | 61 | 160 | 5.0 | 9.0 | 0.00 | 0.02 | 0.02 | 74 | 1006.4 |
| 20260505085243 | 61 | 222 | 1.0 | 10.0 | 0.00 | 0.02 | 0.02 | 75 | 1006.3 |
| 20260505085144 | 61 | 224 | 5.0 | 8.0 | 0.00 | 0.02 | 0.02 | 75 | 1006.3 |
| 20260505083743 | 60 | 179 | 3.0 | 7.0 | 0.00 | 0.02 | 0.02 | 77 | 1006.5 |
| 20260505083647 | 60 | 235 | 3.0 | 7.0 | 0.00 | 0.02 | 0.02 | 77 | 1006.5 |
| 20260505082243 | 60 | 238 | 2.0 | 10.0 | 0.00 | 0.02 | 0.02 | 77 | 1006.4 |
| 20260505082142 | 60 | 238 | 2.0 | 10.0 | 0.00 | 0.02 | 0.02 | 77 | 1006.4 |
| 20260505080743 | 59 | 226 | 1.0 | 8.0 | 0.00 | 0.02 | 0.02 | 78 | 1006.5 |
| 20260505075243 | 59 | 213 | 0.0 | 6.0 | 0.00 | 0.02 | 0.02 | 80 | 1006.3 |
| 20260505075144 | 59 | 191 | 2.0 | 7.0 | 0.00 | 0.02 | 0.02 | 80 | 1006.3 |
| 20260505073743 | 59 | 180 | 0.0 | 8.0 | 0.00 | 0.02 | 0.02 | 80 | 1006.2 |
| 20260505072243 | 60 | 208 | 1.0 | 5.0 | 0.00 | 0.02 | 0.02 | 78 | 1006.3 |
| 20260505072143 | 60 | 225 | 1.0 | 7.0 | 0.01 | 0.02 | 0.02 | 78 | 1006.3 |
| 20260505070743 | 61 | 210 | 0.0 | 11.0 | 0.01 | 0.02 | 0.02 | 76 | 1006.2 |
| 20260505065243 | 61 | 206 | 4.0 | 15.0 | 0.02 | 0.02 | 0.02 | 75 | 1006.3 |
| 20260505065142 | 61 | 221 | 4.0 | 17.0 | 0.02 | 0.02 | 0.02 | 75 | 1006.3 |
| 20260505063743 | 61 | 217 | 2.0 | 12.0 | 0.02 | 0.02 | 0.02 | 76 | 1006.5 |
| 20260505062243 | 61 | 265 | 4.0 | 12.0 | 0.01 | 0.01 | 0.01 | 76 | 1006.8 |
| 20260505062142 | 61 | 265 | 4.0 | 12.0 | 0.01 | 0.01 | 0.01 | 76 | 1006.8 |
| 20260505060743 | 62 | 162 | 8.0 | 7.0 | 0.01 | 0.01 | 0.01 | 75 | 1007.0 |
| 20260505060705 | 62 | 162 | 8.0 | 7.0 | 0.01 | 0.01 | 0.01 | 75 | 1007.0 |
| 20260505055243 | 63 | 275 | 4.0 | 7.0 | 0.00 | 0.00 | 0.00 | 69 | 1006.9 |
| 20260505055144 | 63 | 275 | 4.0 | 7.0 | 0.00 | 0.00 | 0.00 | 69 | 1006.9 |
| 20260505053743 | 62 | 209 | 6.0 | 7.0 | 0.00 | 0.00 | 0.00 | 70 | 1006.9 |
| 20260505052243 | 61 | 248 | 1.0 | 7.0 | 0.00 | 0.00 | 0.00 | 71 | 1007.0 |
| 20260505052147 | 61 | 246 | 0.0 | 7.0 | 0.00 | 0.00 | 0.00 | 71 | 1007.0 |
| 20260505050743 | 61 | 204 | 0.0 | 6.0 | 0.00 | 0.00 | 0.00 | 70 | 1007.0 |
| 20260505040743 | 61 | 210 | 0.0 | 5.0 | 0.00 | 0.00 | 0.00 | 71 | 1007.1 |
| 20260505040647 | 61 | 221 | 0.0 | 5.0 | 0.00 | 0.00 | 0.00 | 71 | 1007.1 |
| 20260505035243 | 61 | 202 | 2.0 | 5.0 | 0.00 | 0.00 | 0.00 | 71 | 1007.1 |
| 20260505033743 | 60 | 228 | 1.0 | 4.0 | 0.00 | 0.00 | 0.00 | 72 | 1007.1 |
| 20260505032242 | 60 | 196 | 0.0 | 3.0 | 0.00 | 0.00 | 0.00 | 71 | 1007.1 |
| 20260505032145 | 60 | 196 | 0.0 | 3.0 | 0.00 | 0.00 | 0.00 | 71 | 1007.1 |
| 20260505030743 | 61 | 227 | 0.0 | 2.0 | 0.00 | 0.00 | 0.00 | 70 | 1007.3 |
| 20260505025243 | 61 | 200 | 0.0 | 2.0 | 0.00 | 0.00 | 0.00 | 70 | 1007.5 |
| 20260505025143 | 61 | 208 | 0.0 | 1.0 | 0.00 | 0.00 | 0.00 | 69 | 1007.5 |
| 20260505023744 | 62 | 202 | 1.0 | 2.0 | 0.00 | 0.00 | 0.00 | 68 | 1007.6 |
| 20260505022243 | 62 | 221 | 0.0 | 3.0 | 0.00 | 0.00 | 0.00 | 67 | 1007.6 |
| 20260505021006 | 63 | 216 | 0.0 | 3.0 | 0.00 | 0.00 | 0.00 | 66 | 1007.6 |
| 20260505020744 | 63 | 195 | 0.0 | 3.0 | 0.00 | 0.00 | 0.00 | 66 | 1007.6 |
| 20260505015243 | 63 | 218 | 1.0 | 4.0 | 0.00 | 0.00 | 0.00 | 66 | 1007.5 |
| 20260505015142 | 63 | 218 | 0.0 | 5.0 | 0.00 | 0.00 | 0.00 | 66 | 1007.5 |
| 20260505013742 | 63 | 209 | 0.0 | 3.0 | 0.00 | 0.00 | 0.00 | 65 | 1007.4 |
| 20260505012243 | 64 | 223 | 0.0 | 7.0 | 0.00 | 0.00 | 0.00 | 64 | 1007.2 |
| 20260505010744 | 64 | 219 | 1.0 | 5.0 | 0.00 | 0.00 | 0.00 | 63 | 1007.3 |
| 20260505005243 | 65 | 212 | 1.0 | 7.0 | 0.00 | 0.00 | 0.00 | 62 | 1007.2 |
| 20260505005144 | 65 | 224 | 0.0 | 7.0 | 0.00 | 0.00 | 0.00 | 62 | 1007.2 |
| 20260505003742 | 65 | 286 | 2.0 | 10.0 | 0.00 | 0.00 | 0.00 | 62 | 1007.1 |
| 20260505003705 | 65 | 254 | 2.0 | 10.0 | 0.00 | 0.00 | 0.00 | 61 | 1007.1 |
| 20260505002243 | 66 | 214 | 5.0 | 10.0 | 0.00 | 0.00 | 0.00 | 61 | 1006.8 |
| 20260505000742 | 67 | 210 | 6.0 | 11.0 | 0.00 | 0.00 | 0.00 | 59 | 1006.8 |
| 20260504235243 | 67 | 252 | 0.0 | 12.0 | 0.00 | 0.00 | 0.00 | 59 | 1006.7 |
| 20260504233744 | 68 | 209 | 2.0 | 9.0 | 0.00 | 0.00 | 0.00 | 57 | 1006.7 |
| 20260504232243 | 68 | 215 | 0.0 | 15.0 | 0.00 | 0.00 | 0.00 | 56 | 1006.7 |
| 20260504230744 | 69 | 216 | 2.0 | 14.0 | 0.00 | 0.00 | 0.00 | 56 | 1006.7 |
| 20260504225243 | 69 | 224 | 5.0 | 16.0 | 0.00 | 0.00 | 0.00 | 55 | 1007.1 |
| 20260504223743 | 69 | 239 | 2.0 | 17.0 | 0.00 | 0.00 | 0.00 | 56 | 1007.0 |
| 20260504222243 | 70 | 235 | 2.0 | 7.0 | 0.00 | 0.00 | 0.00 | 56 | 1007.2 |
| 20260504222142 | 70 | 234 | 4.0 | 14.0 | 0.00 | 0.00 | 0.00 | 56 | 1007.2 |
| 20260504220744 | 69 | 204 | 10.0 | 16.0 | 0.00 | 0.00 | 0.00 | 56 | 1007.2 |
| 20260504220659 | 69 | 242 | 5.0 | 16.0 | 0.00 | 0.00 | 0.00 | 56 | 1007.2 |
| 20260504215242 | 69 | 209 | 3.0 | 16.0 | 0.00 | 0.00 | 0.00 | 55 | 1007.1 |
| 20260504215152 | 69 | 209 | 3.0 | 16.0 | 0.00 | 0.00 | 0.00 | 55 | 1007.1 |
| 20260504213743 | 70 | 265 | 4.0 | 19.0 | 0.00 | 0.00 | 0.00 | 54 | 1007.0 |
| 20260504212242 | 69 | 212 | 7.0 | 15.0 | 0.00 | 0.00 | 0.00 | 55 | 1007.0 |
| 20260504210743 | 71 | 234 | 11.0 | 16.0 | 0.00 | 0.00 | 0.00 | 53 | 1006.8 |
| 20260504205242 | 71 | 201 | 12.0 | 17.0 | 0.00 | 0.00 | 0.00 | 53 | 1006.9 |
| 20260504203744 | 69 | 232 | 2.0 | 16.0 | 0.00 | 0.00 | 0.00 | 56 | 1006.8 |
| 20260504202243 | 70 | 187 | 7.0 | 16.0 | 0.00 | 0.00 | 0.00 | 54 | 1007.3 |
| 20260504200744 | 71 | 225 | 8.0 | 18.0 | 0.00 | 0.00 | 0.00 | 53 | 1007.4 |
| 20260504195243 | 71 | 225 | 8.0 | 17.0 | 0.00 | 0.00 | 0.00 | 52 | 1007.7 |
| 20260504193743 | 70 | 265 | 6.0 | 15.0 | 0.00 | 0.00 | 0.00 | 56 | 1007.8 |
| 20260504192243 | 70 | 231 | 9.0 | 18.0 | 0.00 | 0.00 | 0.00 | 56 | 1007.9 |
| 20260504190743 | 70 | 243 | 5.0 | 18.0 | 0.00 | 0.00 | 0.00 | 54 | 1008.0 |
| 20260504185242 | 70 | 193 | 5.0 | 20.0 | 0.00 | 0.00 | 0.00 | 54 | 1008.1 |
| 20260504183743 | 69 | 235 | 6.0 | 17.0 | 0.00 | 0.00 | 0.00 | 54 | 1008.5 |
| 20260504182242 | 69 | 211 | 5.0 | 15.0 | 0.00 | 0.00 | 0.00 | 57 | 1008.5 |
| 20260504180743 | 68 | 194 | 8.0 | 21.0 | 0.00 | 0.00 | 0.00 | 53 | 1008.6 |
| 20260504175242 | 69 | 227 | 7.0 | 13.0 | 0.00 | 0.00 | 0.00 | 54 | 1008.7 |
| 20260504173744 | 68 | 234 | 2.0 | 14.0 | 0.00 | 0.00 | 0.00 | 56 | 1008.9 |
| 20260504172243 | 68 | 210 | 2.0 | 10.0 | 0.00 | 0.00 | 0.00 | 55 | 1009.0 |
| 20260504172142 | 68 | 210 | 2.0 | 10.0 | 0.00 | 0.00 | 0.00 | 55 | 1009.0 |
| 20260504170742 | 67 | 229 | 4.0 | 8.0 | 0.00 | 0.00 | 0.00 | 58 | 1009.2 |
| 20260504150743 | 62 | 241 | 1.0 | 15.0 | 0.00 | 0.00 | 0.00 | 56 | 1010.9 |
| 20260504150708 | 62 | 229 | 4.0 | 15.0 | 0.00 | 0.00 | 0.00 | 57 | 1010.9 |
| 20260504140742 | 58 | 214 | 2.0 | 13.0 | 0.00 | 0.00 | 0.00 | 59 | 1011.0 |